Retour au catalogue

ESSAIM-3

ActifMilitairePO
NORAD 28496·PAYLOAD·🇫🇷 France

Lancé Dec 18, 2004 depuis Guiana Space Centre

Loading…

Prochains Passages (prochaines 24 heures)

TLE

FraisSource: Space-Track

Époque: Sep 14, 2026, 13:38 UTC

1 28496U 04049E   26257.56820208  .00001607  00000-0  14568-3 0  9990
2 28496  98.2298 199.0658 0001060  11.0343 349.0900 14.96883092176094

Suivez ESSAIM-3 en temps réel avec AllMySat

Download on the App Store